| time (UTC) | temp F | wind direction | speed knots | gust knots | rain 1hr in | rain 24hr in | rain mn in | humidity % | barometer mb |
| 20260504215005 | 74 | 46 | 1.7 | 4.3 | 0.00 | 0.00 | 0.00 | 31 | 1001.9 |
| 20260504214606 | 73 | 295 | 0.9 | 6.1 | 0.00 | 0.00 | 0.00 | 32 | 1001.9 |
| 20260504214039 | 73 | 295 | 1.7 | 6.1 | 0.00 | 0.00 | 0.00 | 32 | 1001.9 |
| 20260504213511 | 73 | 293 | 0.9 | 3.5 | 0.00 | 0.00 | 0.00 | 35 | 1001.8 |
| 20260504213102 | 73 | 279 | 0.0 | 5.2 | 0.00 | 0.00 | 0.00 | 35 | 1001.9 |
| 20260504212542 | 73 | 40 | 1.7 | 4.3 | 0.00 | 0.00 | 0.00 | 34 | 1002.1 |
| 20260504212012 | 73 | 283 | 0.9 | 7.0 | 0.00 | 0.00 | 0.00 | 33 | 1002.0 |
| 20260504211601 | 73 | 292 | 0.9 | 7.0 | 0.00 | 0.00 | 0.00 | 34 | 1002.1 |
| 20260504211040 | 73 | 186 | 1.7 | 7.0 | 0.00 | 0.00 | 0.00 | 33 | 1002.1 |
| 20260504210511 | 73 | 118 | 0.9 | 12.2 | 0.00 | 0.00 | 0.00 | 32 | 1002.2 |
| 20260504205543 | 74 | 298 | 2.6 | 7.8 | 0.00 | 0.00 | 0.00 | 33 | 1002.3 |
| 20260504205014 | 74 | 107 | 2.6 | 7.8 | 0.00 | 0.00 | 0.00 | 33 | 1002.3 |
| 20260504204622 | 74 | 289 | 1.7 | 10.4 | 0.00 | 0.00 | 0.00 | 32 | 1002.3 |
| 20260504204046 | 74 | 241 | 2.6 | 10.4 | 0.00 | 0.00 | 0.00 | 34 | 1002.4 |
| 20260504203527 | 74 | 215 | 1.7 | 9.6 | 0.00 | 0.00 | 0.00 | 31 | 1002.3 |
| 20260504203110 | 74 | 259 | 1.7 | 9.6 | 0.00 | 0.00 | 0.00 | 34 | 1002.3 |
| 20260504202551 | 74 | 44 | 1.7 | 6.1 | 0.00 | 0.00 | 0.00 | 34 | 1002.4 |
| 20260504202034 | 73 | 271 | 2.6 | 6.1 | 0.00 | 0.00 | 0.00 | 32 | 1002.5 |
| 20260504201504 | 73 | 348 | 1.7 | 9.6 | 0.00 | 0.00 | 0.00 | 37 | 1002.5 |
| 20260504201054 | 73 | 303 | 3.5 | 9.6 | 0.00 | 0.00 | 0.00 | 34 | 1002.6 |
| 20260504200533 | 73 | 300 | 2.6 | 7.0 | 0.00 | 0.00 | 0.00 | 35 | 1002.8 |
| 20260504200003 | 73 | 182 | 1.7 | 7.8 | 0.00 | 0.00 | 0.00 | 36 | 1002.9 |
| 20260504195556 | 73 | 347 | 2.6 | 7.8 | 0.00 | 0.00 | 0.00 | 35 | 1003.0 |
| 20260504195036 | 72 | 9 | 2.6 | 7.8 | 0.00 | 0.00 | 0.00 | 34 | 1003.0 |
| 20260504194508 | 72 | 313 | 2.6 | 11.3 | 0.00 | 0.00 | 0.00 | 36 | 1003.1 |
| 20260504194100 | 72 | 309 | 2.6 | 11.3 | 0.00 | 0.00 | 0.00 | 35 | 1003.2 |
| 20260504193541 | 72 | 355 | 2.6 | 14.8 | 0.00 | 0.00 | 0.00 | 36 | 1003.4 |
| 20260504193021 | 72 | 52 | 4.3 | 14.8 | 0.00 | 0.00 | 0.00 | 35 | 1003.4 |
| 20260504192606 | 72 | 290 | 2.6 | 10.4 | 0.00 | 0.00 | 0.00 | 38 | 1003.5 |
| 20260504192043 | 72 | 301 | 3.5 | 8.7 | 0.00 | 0.00 | 0.00 | 35 | 1003.6 |
| 20260504191518 | 72 | 200 | 2.6 | 10.4 | 0.00 | 0.00 | 0.00 | 36 | 1003.6 |
| 20260504191107 | 72 | 304 | 2.6 | 10.4 | 0.00 | 0.00 | 0.00 | 36 | 1003.6 |
| 20260504190551 | 72 | 288 | 2.6 | 7.8 | 0.00 | 0.00 | 0.00 | 36 | 1003.8 |
| 20260504190028 | 72 | 33 | 3.5 | 10.4 | 0.00 | 0.00 | 0.00 | 37 | 1003.8 |
| 20260504185610 | 72 | 312 | 2.6 | 10.4 | 0.00 | 0.00 | 0.00 | 39 | 1003.8 |
| 20260504185052 | 72 | 265 | 2.6 | 7.0 | 0.00 | 0.00 | 0.00 | 37 | 1003.8 |
| 20260504184531 | 72 | 251 | 0.9 | 7.8 | 0.00 | 0.00 | 0.00 | 39 | 1004.0 |
| 20260504184001 | 72 | 54 | 0.9 | 5.2 | 0.00 | 0.00 | 0.00 | 39 | 1004.0 |
| 20260504183554 | 72 | 345 | 1.7 | 5.2 | 0.00 | 0.00 | 0.00 | 41 | 1004.1 |
| 20260504183033 | 71 | 103 | 2.6 | 8.7 | 0.00 | 0.00 | 0.00 | 38 | 1004.1 |
| 20260504182503 | 71 | 299 | 2.6 | 8.7 | 0.00 | 0.00 | 0.00 | 40 | 1004.2 |
| 20260504182058 | 71 | 329 | 1.7 | 11.3 | 0.00 | 0.00 | 0.00 | 40 | 1004.2 |
| 20260504181536 | 70 | 231 | 3.5 | 11.3 | 0.00 | 0.00 | 0.00 | 41 | 1004.3 |
| 20260504181007 | 70 | 270 | 1.7 | 10.4 | 0.00 | 0.00 | 0.00 | 42 | 1004.2 |
| 20260504180603 | 70 | 341 | 3.5 | 10.4 | 0.00 | 0.00 | 0.00 | 40 | 1004.5 |
| 20260504180040 | 70 | 284 | 2.6 | 9.6 | 0.00 | 0.00 | 0.00 | 40 | 1004.3 |
| 20260504175513 | 70 | 19 | 3.5 | 9.6 | 0.00 | 0.00 | 0.00 | 42 | 1004.4 |
| 20260504175104 | 70 | 302 | 3.5 | 12.2 | 0.00 | 0.00 | 0.00 | 43 | 1004.4 |
| 20260504174542 | 70 | 233 | 4.3 | 12.2 | 0.00 | 0.00 | 0.00 | 41 | 1004.4 |
| 20260504174023 | 70 | 279 | 2.6 | 7.8 | 0.00 | 0.00 | 0.00 | 42 | 1004.4 |
| 20260504173605 | 70 | 169 | 1.7 | 10.4 | 0.00 | 0.00 | 0.00 | 46 | 1004.4 |
| 20260504173045 | 69 | 313 | 2.6 | 12.2 | 0.00 | 0.00 | 0.00 | 44 | 1004.5 |
| 20260504172516 | 69 | 267 | 3.5 | 12.2 | 0.00 | 0.00 | 0.00 | 45 | 1004.4 |
| 20260504172107 | 69 | 316 | 2.6 | 9.6 | 0.00 | 0.00 | 0.00 | 45 | 1004.5 |
| 20260504171550 | 69 | 226 | 2.6 | 10.4 | 0.00 | 0.00 | 0.00 | 46 | 1004.5 |
| 20260504171028 | 68 | 303 | 5.2 | 10.4 | 0.00 | 0.00 | 0.00 | 45 | 1004.5 |
| 20260504170611 | 68 | 317 | 3.5 | 9.6 | 0.00 | 0.00 | 0.00 | 44 | 1004.5 |
| 20260504160110 | 65 | 309 | 1.7 | 8.7 | 0.00 | 0.00 | 0.00 | 49 | 1005.2 |
| 20260504151045 | 62 | 260 | 2.6 | 12.2 | 0.00 | 0.00 | 0.00 | 51 | 1005.7 |
| 20260504150515 | 62 | 258 | 3.5 | 9.6 | 0.00 | 0.00 | 0.00 | 50 | 1005.7 |
| 20260504150107 | 62 | 317 | 3.5 | 9.6 | 0.00 | 0.00 | 0.00 | 51 | 1005.8 |
| 20260504141057 | 59 | 235 | 3.5 | 10.4 | 0.00 | 0.00 | 0.00 | 51 | 1005.7 |
| 20260504140537 | 59 | 269 | 1.7 | 8.7 | 0.00 | 0.00 | 0.00 | 52 | 1005.9 |
| 20260504130545 | 56 | 321 | 3.5 | 9.6 | 0.00 | 0.00 | 0.00 | 56 | 1006.5 |
| 20260504110502 | 47 | 291 | 1.7 | 3.5 | 0.00 | 0.00 | 0.00 | 64 | 1006.7 |
| 20260504100518 | 46 | 263 | 1.7 | 7.0 | 0.00 | 0.00 | 0.00 | 64 | 1006.6 |
| 20260504100110 | 46 | 277 | 0.9 | 5.2 | 0.00 | 0.00 | 0.00 | 63 | 1006.6 |
| 20260504081533 | 49 | 360 | 0.9 | 3.5 | 0.00 | 0.00 | 0.00 | 58 | 1007.3 |
| 20260504081003 | 49 | 217 | 0.9 | 4.3 | 0.00 | 0.00 | 0.00 | 57 | 1007.4 |
| 20260504080556 | 49 | 286 | 1.7 | 5.2 | 0.00 | 0.00 | 0.00 | 57 | 1007.4 |
| 20260504050524 | 48 | 294 | 0.9 | 4.3 | 0.00 | 0.00 | 0.00 | 61 | 1008.5 |
| 20260504050106 | 48 | 296 | 1.7 | 4.3 | 0.00 | 0.00 | 0.00 | 61 | 1008.5 |
| 20260504045548 | 48 | 254 | 0.0 | 2.6 | 0.00 | 0.00 | 0.00 | 62 | 1008.5 |
| 20260504045015 | 48 | 254 | 0.9 | 3.5 | 0.00 | 0.00 | 0.00 | 62 | 1008.5 |
| 20260504044621 | 48 | 257 | 0.9 | 3.5 | 0.00 | 0.00 | 0.00 | 62 | 1008.5 |
| 20260504044049 | 48 | 258 | 0.9 | 3.5 | 0.00 | 0.00 | 0.00 | 63 | 1008.5 |
| 20260504043529 | 47 | 257 | 0.9 | 3.5 | 0.00 | 0.00 | 0.00 | 63 | 1008.5 |
| 20260504043113 | 47 | 360 | 0.0 | 2.6 | 0.00 | 0.00 | 0.00 | 64 | 1008.6 |
| 20260504042550 | 47 | 360 | 0.0 | 3.5 | 0.00 | 0.00 | 0.00 | 64 | 1008.6 |
| 20260504042030 | 47 | 254 | 0.0 | 3.5 | 0.00 | 0.00 | 0.00 | 64 | 1008.6 |
| 20260504041612 | 47 | 242 | 0.9 | 2.6 | 0.00 | 0.00 | 0.00 | 64 | 1008.6 |
| 20260504041053 | 47 | 241 | 0.9 | 1.7 | 0.00 | 0.00 | 0.00 | 64 | 1008.7 |
| 20260504040523 | 47 | 241 | 0.9 | 2.6 | 0.00 | 0.00 | 0.00 | 65 | 1008.7 |
| 20260504040002 | 47 | 241 | 0.0 | 0.9 | 0.00 | 0.00 | 0.00 | 64 | 1008.7 |
| 20260504035557 | 47 | 240 | 0.0 | 1.7 | 0.00 | 0.00 | 0.00 | 64 | 1008.6 |
| 20260504035036 | 47 | 240 | 0.9 | 2.6 | 0.00 | 0.00 | 0.00 | 64 | 1008.6 |
| 20260504034506 | 47 | 240 | 0.9 | 2.6 | 0.00 | 0.00 | 0.00 | 64 | 1008.6 |
| 20260504034059 | 48 | 279 | 0.0 | 0.0 | 0.00 | 0.00 | 0.00 | 64 | 1008.6 |
| 20260504033540 | 48 | 279 | 0.0 | 0.0 | 0.00 | 0.00 | 0.00 | 62 | 1008.6 |
| 20260504033013 | 48 | 279 | 0.0 | 0.0 | 0.00 | 0.00 | 0.00 | 62 | 1008.6 |
| 20260504032602 | 49 | 279 | 0.0 | 0.0 | 0.00 | 0.00 | 0.00 | 61 | 1008.6 |
| 20260504032042 | 49 | 279 | 0.0 | 0.0 | 0.00 | 0.00 | 0.00 | 60 | 1008.7 |
| 20260504031523 | 50 | 279 | 0.0 | 0.9 | 0.00 | 0.00 | 0.00 | 58 | 1008.8 |
| 20260504031105 | 50 | 279 | 0.0 | 1.7 | 0.00 | 0.00 | 0.00 | 57 | 1008.8 |
| 20260504030547 | 50 | 279 | 0.0 | 1.7 | 0.00 | 0.00 | 0.00 | 57 | 1008.8 |
| 20260504030017 | 51 | 280 | 0.0 | 0.0 | 0.00 | 0.00 | 0.00 | 56 | 1008.8 |
| 20260504025609 | 51 | 280 | 0.0 | 0.0 | 0.00 | 0.00 | 0.00 | 55 | 1008.7 |
| 20260504025050 | 52 | 280 | 0.0 | 1.7 | 0.00 | 0.00 | 0.00 | 54 | 1008.6 |
| 20260504024532 | 52 | 280 | 0.0 | 5.2 | 0.00 | 0.00 | 0.00 | 53 | 1008.7 |
| 20260504024000 | 53 | 280 | 0.9 | 5.2 | 0.00 | 0.00 | 0.00 | 51 | 1008.7 |
| 20260504023553 | 53 | 255 | 0.9 | 3.5 | 0.00 | 0.00 | 0.00 | 52 | 1008.7 |
| 20260504023034 | 53 | 246 | 0.9 | 6.1 | 0.00 | 0.00 | 0.00 | 51 | 1008.7 |
| 20260504022507 | 53 | 284 | 1.7 | 7.0 | 0.00 | 0.00 | 0.00 | 51 | 1008.7 |
| 20260504022100 | 53 | 226 | 1.7 | 7.0 | 0.00 | 0.00 | 0.00 | 50 | 1008.8 |
| 20260504021539 | 53 | 300 | 1.7 | 6.1 | 0.00 | 0.00 | 0.00 | 50 | 1008.9 |
| 20260504021007 | 53 | 228 | 1.7 | 7.8 | 0.00 | 0.00 | 0.00 | 50 | 1008.9 |
| 20260504020558 | 53 | 238 | 2.6 | 8.7 | 0.00 | 0.00 | 0.00 | 51 | 1008.9 |
| 20260504020038 | 53 | 360 | 1.7 | 8.7 | 0.00 | 0.00 | 0.00 | 51 | 1009.0 |
| 20260504015510 | 53 | 360 | 1.7 | 7.8 | 0.00 | 0.00 | 0.00 | 51 | 1009.0 |
| 20260504015102 | 53 | 360 | 2.6 | 5.2 | 0.00 | 0.00 | 0.00 | 51 | 1009.0 |
| 20260504014545 | 54 | 360 | 1.7 | 5.2 | 0.00 | 0.00 | 0.00 | 51 | 1009.0 |
| 20260504014014 | 54 | 360 | 1.7 | 7.8 | 0.00 | 0.00 | 0.00 | 50 | 1009.1 |
| 20260504013608 | 54 | 360 | 1.7 | 7.8 | 0.00 | 0.00 | 0.00 | 49 | 1009.2 |
| 20260504013053 | 54 | 360 | 1.7 | 4.3 | 0.00 | 0.00 | 0.00 | 48 | 1009.1 |
| 20260504012529 | 54 | 360 | 1.7 | 4.3 | 0.00 | 0.00 | 0.00 | 48 | 1009.2 |
| 20260504012109 | 54 | 360 | 1.7 | 8.7 | 0.00 | 0.00 | 0.00 | 47 | 1009.1 |
| 20260504011549 | 54 | 360 | 0.9 | 11.3 | 0.00 | 0.00 | 0.00 | 47 | 1009.0 |
| 20260504011019 | 54 | 360 | 4.3 | 10.4 | 0.00 | 0.00 | 0.00 | 47 | 1008.9 |
| 20260504010612 | 54 | 360 | 2.6 | 13.0 | 0.00 | 0.00 | 0.00 | 47 | 1008.9 |
| 20260504010101 | 54 | 34 | 3.5 | 13.0 | 0.00 | 0.00 | 0.00 | 48 | 1008.8 |
| 20260504005533 | 54 | 360 | 1.7 | 11.3 | 0.00 | 0.00 | 0.00 | 49 | 1008.9 |
| 20260504005006 | 54 | 360 | 4.3 | 11.3 | 0.00 | 0.00 | 0.00 | 49 | 1009.1 |
| 20260504004608 | 54 | 41 | 3.5 | 10.4 | 0.00 | 0.00 | 0.00 | 49 | 1009.0 |
| 20260504004037 | 54 | 360 | 1.7 | 10.4 | 0.00 | 0.00 | 0.00 | 50 | 1009.2 |
| 20260504003508 | 54 | 360 | 2.6 | 13.0 | 0.00 | 0.00 | 0.00 | 49 | 1009.3 |
| 20260504003100 | 54 | 360 | 3.5 | 15.6 | 0.00 | 0.00 | 0.00 | 48 | 1009.3 |
| 20260504002539 | 54 | 360 | 4.3 | 15.6 | 0.00 | 0.00 | 0.00 | 48 | 1009.4 |
| 20260504002014 | 54 | 45 | 1.7 | 13.9 | 0.00 | 0.00 | 0.00 | 48 | 1009.4 |
| 20260504001609 | 54 | 360 | 4.3 | 13.9 | 0.00 | 0.00 | 0.00 | 46 | 1009.3 |
| 20260504001042 | 54 | 360 | 3.5 | 20.0 | 0.00 | 0.00 | 0.00 | 47 | 1009.2 |
| 20260504000511 | 54 | 42 | 2.6 | 13.9 | 0.00 | 0.00 | 0.00 | 47 | 1009.2 |
| 20260504000134 | 54 | 360 | 6.1 | 13.9 | 0.00 | 0.00 | 0.00 | 46 | 1009.5 |
| 20260503235543 | 54 | 360 | 2.6 | 11.3 | 0.00 | 0.00 | 0.00 | 46 | 1009.3 |
| 20260503235014 | 54 | 360 | 0.9 | 7.8 | 0.00 | 0.00 | 0.00 | 47 | 1009.4 |
| 20260503234607 | 54 | 360 | 1.7 | 7.0 | 0.00 | 0.00 | 0.00 | 46 | 1009.1 |
| 20260503234048 | 54 | 22 | 1.7 | 9.6 | 0.00 | 0.00 | 0.00 | 45 | 1009.1 |
| 20260503233527 | 53 | 360 | 1.7 | 9.6 | 0.00 | 0.00 | 0.00 | 46 | 1009.1 |
| 20260503233111 | 53 | 213 | 1.7 | 5.2 | 0.00 | 0.00 | 0.00 | 47 | 1009.2 |
| 20260503232550 | 53 | 360 | 2.6 | 11.3 | 0.00 | 0.00 | 0.00 | 47 | 1009.2 |
| 20260503232019 | 54 | 360 | 1.7 | 11.3 | 0.00 | 0.00 | 0.00 | 47 | 1009.2 |
| 20260503231612 | 54 | 360 | 2.6 | 15.6 | 0.00 | 0.00 | 0.00 | 47 | 1009.2 |
| 20260503231053 | 54 | 360 | 4.3 | 15.6 | 0.00 | 0.00 | 0.00 | 46 | 1009.5 |
| 20260503230526 | 54 | 360 | 3.5 | 11.3 | 0.00 | 0.00 | 0.00 | 45 | 1009.4 |
| 20260503230113 | 54 | 360 | 3.5 | 19.1 | 0.00 | 0.00 | 0.00 | 45 | 1009.3 |
| 20260503225550 | 55 | 29 | 4.3 | 19.1 | 0.00 | 0.00 | 0.00 | 46 | 1009.3 |
| 20260503225033 | 55 | 360 | 3.5 | 9.6 | 0.00 | 0.00 | 0.00 | 45 | 1009.2 |
| 20260503224612 | 55 | 360 | 2.6 | 11.3 | 0.00 | 0.00 | 0.00 | 47 | 1009.3 |
| 20260503224054 | 55 | 360 | 2.6 | 14.8 | 0.00 | 0.00 | 0.00 | 46 | 1009.3 |
| 20260503223524 | 55 | 360 | 3.5 | 14.8 | 0.00 | 0.00 | 0.00 | 45 | 1009.0 |
| 20260503223004 | 56 | 355 | 4.3 | 10.4 | 0.00 | 0.00 | 0.00 | 43 | 1009.1 |
| 20260503222556 | 56 | 235 | 2.6 | 12.2 | 0.00 | 0.00 | 0.00 | 44 | 1008.9 |
| 20260503222035 | 57 | 34 | 3.5 | 12.2 | 0.00 | 0.00 | 0.00 | 41 | 1009.0 |
| 20260503221505 | 57 | 96 | 3.5 | 9.6 | 0.00 | 0.00 | 0.00 | 42 | 1009.0 |
| 20260503221056 | 57 | 78 | 2.6 | 9.6 | 0.00 | 0.00 | 0.00 | 40 | 1008.9 |
| 20260503220536 | 57 | 351 | 3.5 | 10.4 | 0.00 | 0.00 | 0.00 | 41 | 1008.7 |
| 20260503220005 | 57 | 342 | 3.5 | 10.4 | 0.00 | 0.00 | 0.00 | 39 | 1008.8 |
| 20260503215557 | 57 | 32 | 2.6 | 11.3 | 0.00 | 0.00 | 0.00 | 40 | 1008.8 |